Weather History for Peru, IL

Change the Weather History Date:

Friday, March 29, 2013

  Actual Average Record
Temperature  
Mean Temperature 44 °F -  
Max Temperature 54 °F 53 °F 73 °F (1981)
Min Temperature 34 °F 32 °F 11 °F (1969)
Degree Days  
Heating Degree Days 21    
Moisture  
Dew Point 31 °F    
Average Humidity 62    
Maximum Humidity 87    
Minimum Humidity 40    
Precipitation  
Precipitation 0.00 in - - ()
Sea Level Pressure  
Sea Level Pressure 30.27 in    
Wind  
Wind Speed 2 mph (ENE)    
Max Wind Speed 9 mph    
Max Gust Speed -    
Visibility 10 miles    
Events      
Averages and records for this station are not official NWS values.
T = Trace of Precipitation, MM = Missing Value Source: NWS Daily Summary

Daily Weather History Graph

Daily Weather History Graph

Search for Another Location

Airport:

Trip Planner

Search our weather history database for the weather conditions in past years. The results will help you decide how hot, cold, wet, or windy it might be!

Date:

Astronomy

Mar. 29, 2013 Rise Set
Actual Time 6:44 AM CDT 7:18 PM CDT
Civil Twilight 6:16 AM CDT 7:46 PM CDT
Nautical Twilight 5:43 AM CDT 8:19 PM CDT
Astronomical Twilight 5:10 AM CDT 8:53 PM CDT
Moon 10:21 PM CDT (3/29) 7:51 AM CDT (3/29)
Length of Visible Light 13h 30m
Length of Day
12h 34m
Waning Gibbous, 93% of the Moon is Illuminated
Mar 29
Waning Gibbous
Apr 2
Last Quarter
Apr 10
New
Apr 18
First Quarter
Apr 25
Full

Hourly Weather History & Observations

Time (CDT) Temp. Windchill Dew Point Humidity Pressure Visibility Wind Dir Wind Speed Gust Speed Precip Events Conditions
12:15 AM 37.9 °F - 32.0 °F 79% 30.31 in 10.0 mi Calm Calm - N/A   Overcast
12:35 AM 37.8 °F - 31.8 °F 79% 30.30 in 10.0 mi Calm Calm - N/A   Overcast
12:55 AM 38.8 °F - 32.0 °F 76% 30.30 in 10.0 mi Calm Calm - N/A   Overcast
1:15 AM 38.3 °F - 32.0 °F 78% 30.30 in 10.0 mi Calm Calm - N/A   Overcast
1:35 AM 38.3 °F - 32.0 °F 78% 30.30 in 10.0 mi Calm Calm - N/A   Overcast
1:55 AM 38.3 °F 34.8 °F 32.0 °F 78% 30.30 in 10.0 mi NE 4.6 mph - N/A   Overcast
2:15 AM 36.9 °F 33.1 °F 31.3 °F 80% 30.30 in 10.0 mi NE 4.6 mph - N/A   Overcast
2:35 AM 35.6 °F 32.8 °F 32.0 °F 87% 30.29 in 10.0 mi ENE 3.5 mph - N/A   Overcast
2:55 AM 36.3 °F - 31.1 °F 81% 30.29 in 10.0 mi Calm Calm - N/A   Overcast
3:15 AM 36.7 °F 32.0 °F 31.5 °F 81% 30.29 in 10.0 mi East 5.8 mph - N/A   Overcast
3:35 AM 37.4 °F - 30.2 °F 75% 30.29 in 10.0 mi Calm Calm - N/A   Overcast
3:55 AM 36.9 °F - 30.7 °F 79% 30.29 in 10.0 mi Calm Calm - N/A   Overcast
4:15 AM 36.9 °F - 30.9 °F 79% 30.28 in 10.0 mi Calm Calm - N/A   Overcast
4:35 AM 36.5 °F - 30.7 °F 80% 30.28 in 10.0 mi Calm Calm - N/A   Overcast
4:55 AM 35.6 °F 30.7 °F 30.9 °F 83% 30.28 in 10.0 mi NE 5.8 mph - N/A   Overcast
5:35 AM 35.6 °F 30.7 °F 30.0 °F 80% 30.28 in 10.0 mi NE 5.8 mph - N/A   Overcast
5:55 AM 34.9 °F 29.0 °F 29.5 °F 81% 30.29 in 10.0 mi NE 6.9 mph - N/A   Overcast
6:15 AM 34.7 °F 30.6 °F 29.5 °F 81% 30.29 in 10.0 mi ENE 4.6 mph - N/A   Overcast
6:35 AM 34.5 °F 30.4 °F 29.8 °F 83% 30.29 in 10.0 mi ENE 4.6 mph - N/A   Overcast
6:55 AM 34.3 °F 29.2 °F 29.7 °F 83% 30.30 in 10.0 mi ENE 5.8 mph - N/A   Overcast
7:15 AM 34.9 °F 32.0 °F 29.3 °F 80% 30.30 in 10.0 mi East 3.5 mph - N/A   Overcast
7:35 AM 35.2 °F - 31.1 °F 85% 30.30 in 10.0 mi Calm Calm - N/A   Overcast
8:15 AM 37.2 °F 34.7 °F 29.8 °F 75% 30.31 in 10.0 mi East 3.5 mph - N/A   Mostly Cloudy
8:35 AM 39.6 °F - 29.8 °F 68% 30.31 in 10.0 mi Calm Calm - N/A   Mostly Cloudy
8:55 AM 41.9 °F - 31.1 °F 66% 30.32 in 10.0 mi Calm Calm - N/A   Scattered Clouds
9:15 AM 42.4 °F - 31.3 °F 65% 30.32 in 10.0 mi Calm Calm - N/A   Scattered Clouds
9:35 AM 45.0 °F - 30.9 °F 58% 30.32 in 10.0 mi Calm Calm - N/A   Scattered Clouds
9:55 AM 46.2 °F 45.0 °F 31.3 °F 56% 30.31 in 10.0 mi ESE 3.5 mph - N/A   Scattered Clouds
10:15 AM 47.7 °F - 31.8 °F 54% 30.32 in 10.0 mi Calm Calm - N/A   Scattered Clouds
10:35 AM 48.6 °F - 31.1 °F 51% 30.31 in 10.0 mi ESE 3.5 mph - N/A   Scattered Clouds
10:55 AM 48.6 °F - 31.3 °F 51% 30.32 in 10.0 mi South 3.5 mph - N/A   Mostly Cloudy
11:15 AM 49.5 °F - 30.9 °F 49% 30.31 in 10.0 mi Calm Calm - N/A   Scattered Clouds
11:55 AM 51.4 °F - 32.0 °F 47% 30.30 in 10.0 mi SE 4.6 mph - N/A   Clear
12:15 PM 51.1 °F - 31.8 °F 48% 30.30 in 10.0 mi Calm Calm - N/A   Mostly Cloudy
12:35 PM 52.2 °F - 32.0 °F 46% 30.29 in 10.0 mi Calm Calm - N/A   Scattered Clouds
12:55 PM 51.3 °F - 31.3 °F 46% 30.29 in 10.0 mi Calm Calm - N/A   Scattered Clouds
1:15 PM 53.6 °F - 31.3 °F 43% 30.28 in 10.0 mi SW 3.5 mph - N/A   Scattered Clouds
1:35 PM 54.0 °F - 32.0 °F 43% 30.27 in 10.0 mi West 6.9 mph - N/A   Mostly Cloudy
1:55 PM 52.5 °F - 32.2 °F 46% 30.27 in 10.0 mi NE 5.8 mph - N/A   Scattered Clouds
2:15 PM 52.2 °F - 31.6 °F 46% 30.26 in 10.0 mi Calm Calm - N/A   Clear
2:35 PM 52.3 °F - 30.6 °F 43% 30.25 in 10.0 mi Calm Calm - N/A   Mostly Cloudy
2:55 PM 53.1 °F - 31.6 °F 44% 30.25 in 10.0 mi Calm Calm - N/A   Scattered Clouds
3:35 PM 54.7 °F - 32.0 °F 42% 30.24 in 10.0 mi ENE 4.6 mph - N/A   Scattered Clouds
3:55 PM 54.7 °F - 30.9 °F 40% 30.23 in 10.0 mi Calm Calm - N/A   Scattered Clouds
4:15 PM 54.7 °F - 31.6 °F 42% 30.23 in 10.0 mi NW 6.9 mph - N/A   Scattered Clouds
4:35 PM 54.7 °F - 31.3 °F 41% 30.23 in 10.0 mi WNW 4.6 mph - N/A   Scattered Clouds
4:55 PM 54.3 °F - 31.3 °F 42% 30.22 in 10.0 mi Calm Calm - N/A   Clear
5:15 PM 54.5 °F - 30.4 °F 40% 30.22 in 10.0 mi Calm Calm - N/A   Scattered Clouds
5:35 PM 54.7 °F - 30.7 °F 40% 30.22 in 10.0 mi WNW 3.5 mph - N/A   Scattered Clouds
5:55 PM 53.6 °F - 30.9 °F 42% 30.21 in 10.0 mi ENE 4.6 mph - N/A   Clear
6:15 PM 53.2 °F - 31.3 °F 43% 30.22 in 10.0 mi West 6.9 mph - N/A   Clear
6:35 PM 52.3 °F - 33.1 °F 48% 30.22 in 10.0 mi West 5.8 mph - N/A   Clear
6:55 PM 50.9 °F - 34.9 °F 54% 30.22 in 10.0 mi ENE 5.8 mph - N/A   Clear
7:15 PM 48.6 °F - 35.4 °F 60% 30.22 in 10.0 mi ENE 4.6 mph - N/A   Clear
7:35 PM 48.2 °F - 33.8 °F 58% 30.22 in 10.0 mi NE 3.5 mph - N/A   Clear
7:55 PM 45.0 °F 42.6 °F 32.5 °F 62% 30.22 in 10.0 mi NE 4.6 mph - N/A   Clear
8:15 PM 46.4 °F 44.3 °F 32.2 °F 58% 30.22 in 10.0 mi ENE 4.6 mph - N/A   Clear
8:35 PM 44.6 °F 42.2 °F 32.0 °F 61% 30.23 in 10.0 mi ENE 4.6 mph - N/A   Clear
9:15 PM 45.1 °F 42.8 °F 31.1 °F 58% 30.24 in 10.0 mi East 4.6 mph - N/A   Clear
9:55 PM 42.1 °F 38.4 °F 30.6 °F 64% 30.24 in 10.0 mi East 5.8 mph - N/A   Clear
10:15 PM 39.7 °F 36.5 °F 30.7 °F 70% 30.24 in 10.0 mi ENE 4.6 mph - N/A   Clear
10:35 PM 41.4 °F 37.6 °F 30.7 °F 66% 30.24 in 10.0 mi East 5.8 mph - N/A   Clear
10:55 PM 40.1 °F 36.9 °F 30.6 °F 69% 30.24 in 10.0 mi ENE 4.6 mph - N/A   Clear
11:15 PM 39.6 °F 34.7 °F 30.7 °F 71% 30.24 in 10.0 mi NE 6.9 mph - N/A   Clear
11:35 PM 39.6 °F 33.5 °F 30.0 °F 69% 30.23 in 10.0 mi East 9.2 mph - N/A   Clear
11:55 PM 37.6 °F 32.3 °F 29.3 °F 72% 30.23 in 10.0 mi East 6.9 mph - N/A   Clear